Weather History for KROC - January, 2013

Change the Weather History Date:

Sunday, January 27, 2013

  Actual Average Record
Temperature  
Mean Temperature 20 °F 24 °F  
Max Temperature 28 °F 32 °F 63 °F (1916)
Min Temperature 11 °F 17 °F -7 °F (1927)
Degree Days  
Heating Degree Days 45 41  
Month to date heating degree days 985 1090  
Since 1 July heating degree days 3161 3543  
Cooling Degree Days 0 0  
Month to date cooling degree days 0 0  
Year to date cooling degree days 0 0  
Moisture  
Dew Point 14 °F    
Average Humidity 77    
Maximum Humidity 92    
Minimum Humidity 62    
Precipitation  
Precipitation T in 0.07 in 0.80 in (1876)
Month to date precipitation 0.52 2.13  
Year to date precipitation 0.52 2.13  
Snow  
Snow 0.10 in 0.90 in 9.10 in (1963)
Month to date snowfall 10.4 24.7  
Since 1 July snowfall 33.8 53.9  
Snow Depth 1.00 in    
Sea Level Pressure  
Sea Level Pressure 30.49 in    
Wind  
Wind Speed 4 mph (SSW)    
Max Wind Speed 10 mph    
Max Gust Speed 13 mph    
Visibility 8 miles    
Events Snow    
T = Trace of Precipitation, MM = Missing Value Source: NWS Daily Summary

Daily Weather History Graph

Daily Weather History Graph

Search for Another Location

Airport or City:

Trip Planner

Search our weather history database for the weather conditions in past years. The results will help you decide how hot, cold, wet, or windy it might be!

Date:

Astronomy

Jan. 27, 2013 Rise Set
Actual Time 7:30 AM EST 5:16 PM EST
Civil Twilight 7:00 AM EST 5:47 PM EST
Nautical Twilight 6:25 AM EST 6:21 PM EST
Astronomical Twilight 5:52 AM EST 6:55 PM EST
Moon 6:11 PM EST (1/27) 7:20 AM EST (1/27)
Length of Visible Light 10h 47m
Length of Day
9h 46m
Full, 100% of the Moon is Illuminated
Jan 27
Full
Feb 3
Last Quarter
Feb 10
New
Feb 17
First Quarter
Feb 25
Full

Hourly Weather History & Observations

Time (EST) Temp. Windchill Dew Point Humidity Pressure Visibility Wind Dir Wind Speed Gust Speed Precip Events Conditions
12:54 AM 16.0 °F 7.4 °F 12.0 °F 84% 30.42 in 10.0 mi WSW 5.8 mph - 0.00 in   Mostly Cloudy
1:54 AM 21.0 °F 13.4 °F 15.1 °F 78% 30.44 in 6.0 mi West 5.8 mph - 0.00 in Snow Light Snow
2:21 AM 21.2 °F 13.6 °F 15.8 °F 80% 30.42 in 5.0 mi West 5.8 mph - 0.00 in Snow Light Snow
2:54 AM 21.0 °F 13.4 °F 16.0 °F 81% 30.46 in 6.0 mi West 5.8 mph - 0.00 in Snow Light Snow
3:54 AM 19.0 °F 12.3 °F 15.1 °F 85% 30.48 in 5.0 mi West 4.6 mph - 0.00 in Snow Light Snow
4:54 AM 14.0 °F 6.5 °F 10.9 °F 88% 30.49 in 5.0 mi West 4.6 mph - 0.00 in Snow Light Snow
5:40 AM 15.8 °F 10.2 °F 12.2 °F 86% 30.47 in 3.0 mi WNW 3.5 mph - 0.00 in Snow Light Snow
5:54 AM 19.0 °F 12.3 °F 16.0 °F 88% 30.50 in 4.0 mi NNW 4.6 mph - 0.00 in Snow Light Snow
6:05 AM 19.4 °F 11.5 °F 15.8 °F 86% 30.47 in 5.0 mi NW 5.8 mph - 0.00 in Snow Light Snow
6:54 AM 19.0 °F 11.1 °F 15.1 °F 85% 30.52 in 9.0 mi North 5.8 mph - 0.00 in Snow Light Snow
7:54 AM 18.0 °F 9.8 °F 12.9 °F 81% 30.54 in 10.0 mi NNE 5.8 mph - 0.00 in   Mostly Cloudy
8:54 AM 14.0 °F 6.5 °F 10.0 °F 84% 30.56 in 3.0 mi WSW 4.6 mph - N/A   Mostly Cloudy
9:54 AM 18.0 °F - 16.0 °F 92% 30.57 in 6.0 mi Calm Calm - N/A   Mostly Cloudy
10:26 AM 21.2 °F 14.9 °F 17.6 °F 86% 30.53 in 10.0 mi ESE 4.6 mph - N/A   Mostly Cloudy
10:54 AM 21.0 °F 16.2 °F 15.1 °F 78% 30.59 in 10.0 mi South 3.5 mph - N/A   Mostly Cloudy
11:54 AM 23.0 °F - 15.1 °F 72% 30.56 in 10.0 mi Calm Calm - N/A   Mostly Cloudy
12:28 PM 24.8 °F - 15.8 °F 69% 30.51 in 10.0 mi Calm Calm - N/A   Partly Cloudy
12:54 PM 24.1 °F - 14.0 °F 65% 30.53 in 10.0 mi Calm Calm - N/A   Mostly Cloudy
1:54 PM 27.0 °F - 15.1 °F 61% 30.53 in 10.0 mi Calm Calm - N/A   Scattered Clouds
2:54 PM 27.0 °F - 15.1 °F 61% 30.53 in 10.0 mi Calm Calm - N/A   Mostly Cloudy
3:54 PM 27.0 °F - 15.1 °F 61% 30.52 in 10.0 mi Calm Calm - N/A   Overcast
4:54 PM 26.1 °F 21.9 °F 15.1 °F 63% 30.51 in 10.0 mi SSE 3.5 mph - N/A   Overcast
5:54 PM 25.0 °F 17.1 °F 14.0 °F 63% 30.48 in 10.0 mi ESE 6.9 mph - N/A   Overcast
6:54 PM 24.1 °F 17.0 °F 14.0 °F 65% 30.47 in 10.0 mi East 5.8 mph - N/A   Mostly Cloudy
7:54 PM 21.9 °F 14.5 °F 12.9 °F 68% 30.47 in 10.0 mi ESE 5.8 mph - N/A   Scattered Clouds
8:54 PM 23.0 °F 13.9 °F 14.0 °F 68% 30.45 in 10.0 mi ESE 8.1 mph - N/A   Overcast
9:54 PM 23.0 °F 13.9 °F 14.0 °F 68% 30.43 in 10.0 mi ESE 8.1 mph - N/A   Mostly Cloudy
10:54 PM 23.0 °F 13.9 °F 16.0 °F 74% 30.41 in 10.0 mi SE 8.1 mph - N/A   Overcast
11:54 PM 24.1 °F 16.0 °F 16.0 °F 71% 30.39 in 10.0 mi SE 6.9 mph - N/A   Overcast